Probability
0 0 0 0 0 0 0 0 0 0 0 0 0 0 0 0 0 1 2 5 6 6 6 6 6 8 11 12 12 9 6 6 7 8 7 6 6 5 4 3 3 3 4 5
0 0 0 0 0 0 0 0 0 0 0 0 0 0 0 0 0 2 4 5 5 5 5 6 7 8 10 12 12 10 8 7 7 8 7 7 6 5 4 4 4 4 5 6
0 0 0 0 0 0 0 0 0 0 0 0 0 0 1 1 1 4 6 7 6 5 5 6 7 9 10 10 10 10 10 9 9 9 9 8 7 6 5 5 6 6 6 6
0 0 0 0 0 0 0 0 0 0 0 0 0 0 1 2 3 5 8 9 9 8 6 6 7 8 8 8 9 9 10 11 11 11 10 9 9 8 8 8 7 6 6 6
0 0 0 0 0 0 0 0 0 0 0 0 0 0 1 1 3 6 7 8 9 8 7 6 7 8 8 9 9 10 11 12 12 11 10 10 10 9 10 9 7 6 6 6
0 0 0 0 0 0 0 0 0 0 0 0 0 0 1 1 3 6 7 7 7 7 6 6 7 9 10 11 12 12 12 13 13 12 11 12 12 12 10 9 7 6 6 6
0 0 0 0 0 0 0 0 0 0 0 0 0 1 2 3 4 6 7 7 6 5 4 4 7 9 10 12 14 14 16 17 16 14 14 15 16 15 12 9 7 6 7 7
0 0 0 0 0 0 0 0 0 0 0 0 0 1 3 4 5 6 7 7 6 5 4 5 9 10 10 11 14 16 20 21 19 16 16 19 20 19 17 14 10 9 9 10
0 0 0 0 0 0 0 0 0 0 0 0 1 2 3 3 4 5 6 5 4 4 4 6 10 12 9 9 11 14 20 22 20 18 18 21 24 25 24 22 18 15 14 15
0 0 0 0 0 0 0 0 0 0 0 0 1 2 3 3 3 4 4 4 3 3 4 6 9 11 9 6 7 10 15 20 20 19 19 20 24 27 28 27 25 21 19 20
0 0 0 0 0 0 0 0 0 0 0 0 0 1 3 3 3 3 5 5 4 2 3 5 7 10 9 6 5 7 11 16 19 19 18 19 22 26 26 26 25 22 23 25
0 0 0 0 0 0 0 0 0 0 0 0 0 1 2 3 3 3 6 7 6 4 4 5 7 10 11 9 7 9 11 15 19 21 19 18 21 25 27 26 24 24 25 28
0 0 0 0 1 0 0 0 0 0 0 0 0 0 1 3 3 4 6 7 6 5 4 5 8 12 15 14 14 14 15 17 20 24 23 20 22 26 28 28 28 28 29 30
0 0 0 0 0 0 0 0 0 0 0 0 0 0 1 2 3 5 6 6 6 5 5 6 9 13 16 18 19 20 21 21 22 24 24 23 25 28 30 30 30 31 31 31
0 0 0 0 0 0 0 0 0 0 0 1 1 1 1 2 3 5 6 7 6 6 6 6 9 13 16 19 21 22 24 25 25 25 26 27 30 32 31 29 28 29 29 27
0 0 0 0 0 0 0 0 0 0 0 1 1 1 1 1 2 3 6 8 8 8 7 7 10 13 15 20 22 23 27 29 30 31 31 32 33 33 30 27 25 25 24 22
0 0 0 0 0 0 0 0 0 0 0 1 1 1 2 2 2 3 6 9 10 10 9 8 11 15 17 20 24 27 31 34 35 34 33 33 33 31 29 25 23 21 18 16
0 0 0 0 0 0 0 1 0 0 0 0 1 3 4 2 2 4 7 10 12 12 12 12 15 19 20 22 25 29 33 35 34 31 29 29 29 29 27 25 22 19 17 16
0 0 0 0 0 0 1 2 1 0 0 0 2 4 5 4 3 6 10 12 14 16 16 18 20 22 24 25 26 28 30 31 29 26 25 26 27 27 26 24 21 20 19 19
1 1 0 0 1 1 3 4 2 1 1 2 3 4 6 7 7 11 16 17 19 20 21 21 23 25 26 26 27 27 26 26 25 24 24 25 26 26 26 24 21 20 22 22
1 1 1 1 1 2 3 4 4 4 5 6 4 4 7 11 15 21 24 23 22 22 22 22 24 27 27 28 29 27 25 24 24 23 23 23 24 25 25 23 20 19 21 22
2 2 3 3 2 2 3 4 6 8 11 12 10 8 11 16 22 28 28 26 23 23 22 22 25 28 27 28 29 28 26 25 24 23 23 24 24 23 22 21 19 18 19 20
4 4 5 5 2 2 3 4 8 11 14 17 16 15 16 20 25 29 28 26 24 22 22 23 25 27 27 25 25 26 25 24 24 23 23 23 22 20 20 20 19 17 17 17
6 8 9 7 4 2 4 6 9 11 13 16 17 18 20 23 26 27 26 25 24 22 21 22 23 25 25 22 20 21 21 22 23 22 20 20 19 19 19 20 18 17 16 15
8 11 11 9 6 6 8 11 13 14 14 16 17 19 22 25 27 26 23 22 22 21 19 18 19 21 21 19 16 15 16 18 20 19 17 18 18 18 18 18 17 15 14 13
9 11 10 7 8 10 13 15 17 17 16 17 19 21 24 26 27 25 21 19 20 19 17 15 16 16 17 16 14 12 12 15 18 17 16 16 17 18 17 16 15 14 12 10
Wind_Speed
9 10 9 8 7 5 4 4 3 2 4 4 4 3 4 7 7 8 8 8 8 8 8 8 7 7 7 6 6 5 5 5 4 3 3 2 2 2 2 2 3 3 2 3
9 11 7 5 6 7 6 6 5 4 4 4 3 4 4 6 7 7 8 8 8 9 8 8 8 7 7 7 7 6 6 6 5 4 2 2 1 1 1 1 2 3 3 2
12 5 6 7 9 9 8 7 5 4 5 6 5 6 6 6 7 7 8 8 8 9 9 10 9 9 8 8 8 6 6 6 5 5 4 3 3 2 2 3 2 2 2 2
9 6 7 9 9 9 8 5 5 6 7 5 6 4 6 7 8 8 8 8 8 9 9 9 10 9 9 8 8 8 7 7 6 6 5 4 3 2 2 1 2 2 3 3
8 8 9 10 8 9 4 4 6 7 7 7 7 7 4 8 8 9 9 9 8 8 9 9 9 9 9 8 8 8 8 7 7 6 6 5 4 2 2 2 2 2 2 3
6 6 7 7 7 7 5 6 6 8 8 8 6 8 3 5 6 7 8 8 8 8 9 9 9 9 8 8 8 8 8 8 7 7 6 6 4 3 2 2 2 2 2 3
9 9 7 7 9 9 9 9 7 8 8 6 4 7 2 1 4 5 6 7 8 8 8 9 10 10 10 9 9 8 8 8 8 8 7 7 6 5 5 4 3 3 2 2
10 10 10 9 10 9 12 12 7 6 6 5 6 6 1 2 3 5 6 6 7 8 8 9 10 10 10 10 9 9 8 8 8 8 7 6 6 5 4 4 3 3 2 2
8 7 8 7 7 9 11 11 9 9 7 7 5 4 4 3 4 6 6 6 6 7 7 8 9 9 10 10 10 10 9 8 8 8 8 7 7 5 4 4 4 3 2 2
5 6 8 7 8 7 9 8 7 8 7 8 6 7 4 5 5 6 6 6 5 6 6 7 8 9 9 9 9 9 9 8 8 8 7 7 7 6 5 5 4 3 3 2
7 8 8 10 11 10 9 10 9 8 8 9 6 4 1 2 3 4 5 4 5 5 5 6 6 7 9 9 9 9 9 9 8 8 7 6 6 6 6 5 5 4 4 4
7 8 8 9 5 5 9 9 10 9 8 9 8 3 4 2 2 3 3 3 4 4 5 5 5 6 7 8 9 9 8 8 8 8 7 7 6 6 6 5 4 4 4 4
5 7 8 10 10 9 8 8 9 9 8 9 9 5 5 3 2 2 3 3 4 4 4 4 5 5 6 7 7 8 8 8 8 8 8 7 7 6 6 5 4 4 4 4
6 8 9 9 5 6 8 8 9 10 9 9 10 8 4 2 2 2 2 3 3 4 4 4 4 5 5 5 6 7 8 7 7 7 7 7 7 6 6 5 5 5 4 4
7 9 8 7 5 7 8 9 10 11 11 11 9 8 5 3 3 2 2 2 3 3 4 5 4 4 5 5 6 6 7 7 7 7 7 7 6 6 6 5 5 5 5 4
6 7 7 8 8 8 9 10 10 11 11 11 10 8 2 1 0 1 2 2 3 3 3 4 4 4 5 6 6 6 7 7 7 7 7 6 6 6 5 5 5 5 4 4
7 7 8 8 8 9 11 9 9 9 9 10 10 6 2 1 1 2 1 2 2 2 2 2 3 4 4 5 5 6 6 6 6 6 6 6 6 6 6 6 5 5 5 4
6 8 7 7 7 12 4 2 4 6 7 6 4 3 2 2 1 0 0 0 0 1 1 2 2 3 3 4 4 5 6 6 6 6 6 6 6 6 5 5 5 5 4 4
7 8 7 8 10 9 5 3 4 6 6 3 3 2 1 0 2 2 2 2 1 1 1 1 1 2 3 3 4 5 6 6 6 6 6 6 6 6 5 5 5 4 4 4
7 8 8 8 10 10 4 3 2 6 7 3 2 2 1 3 4 2 3 2 2 2 1 0 1 2 3 3 4 5 6 6 6 5 5 5 5 5 5 5 4 4 4 4
9 9 11 10 10 6 1 1 5 9 1 1 1 2 2 3 4 3 2 2 2 2 2 2 2 2 3 4 5 5 5 5 5 5 5 5 5 5 4 4 4 3 4 3
6 7 9 9 10 6 1 4 5 2 3 1 1 0 0 1 3 3 2 2 3 3 2 2 3 3 3 4 4 4 3 3 3 4 4 4 4 4 4 4 4 4 4 4
5 4 3 3 2 3 1 1 2 1 1 1 1 1 2 2 2 3 3 3 4 4 3 3 3 3 3 3 3 4 3 2 3 4 4 4 4 4 4 5 5 5 4 4
3 2 3 3 2 1 1 1 1 1 1 1 1 2 2 3 3 4 4 4 4 4 4 3 3 3 3 3 3 3 2 2 2 3 3 3 4 4 3 3 3 3 3 4
3 3 4 4 2 2 1 1 1 1 1 2 3 3 3 3 3 3 4 4 4 4 4 4 3 3 3 3 3 3 2 2 2 2 2 3 3 3 3 3 2 3 2 2
5 5 5 3 2 2 1 1 1 1 1 2 3 3 3 3 3 4 4 3 3 4 4 4 4 3 3 3 3 3 2 1 1 2 1 1 2 2 2 3 3 2 2 3
Wind_Direction
193 213 215 209 222 262 244 237 219 162 148 209 214 198 173 177 192 190 184 181 182 185 177 174 177 173 168 167 171 176 176 170 180 178 182 178 167 173 155 148 134 144 154 158
199 221 222 217 208 228 233 233 213 171 162 223 222 217 185 188 202 198 192 187 186 183 179 179 181 180 177 175 180 181 183 180 188 172 176 179 172 171 149 141 136 155 160 175
219 207 191 204 205 215 228 234 226 202 183 205 227 212 194 190 199 198 201 199 193 188 183 181 184 185 183 182 184 184 184 182 188 179 176 170 171 187 166 164 162 173 178 180
226 201 195 208 211 222 221 217 224 212 222 212 234 248 182 186 190 196 196 194 194 189 185 183 183 185 188 187 183 184 184 185 184 187 188 188 184 178 165 168 149 177 184 185
207 203 205 215 213 225 229 193 214 223 235 245 231 258 178 181 199 198 195 192 191 188 185 185 186 185 189 187 185 183 185 187 187 191 188 198 198 186 172 164 154 207 185 193
215 200 214 219 209 209 179 185 201 224 239 242 240 256 230 184 201 194 192 188 188 185 184 184 185 184 187 187 187 185 182 188 189 193 195 203 198 192 184 194 192 205 190 193
204 198 196 206 196 186 203 209 211 216 222 232 209 247 252 134 186 193 188 184 184 186 185 184 183 185 188 187 185 185 183 188 191 195 198 199 196 197 196 205 202 217 203 196
208 197 191 200 213 203 212 226 238 246 236 215 188 236 171 121 162 181 187 182 179 182 186 187 186 187 189 189 187 186 185 189 189 192 197 199 197 206 198 201 214 210 220 206
214 198 169 196 214 224 214 228 245 256 261 257 210 206 185 173 177 180 181 179 179 181 183 186 185 187 189 191 190 191 187 191 192 192 191 194 197 206 201 197 208 210 213 203
233 212 181 183 201 216 242 228 227 240 247 247 231 231 230 179 188 178 180 180 179 182 184 185 186 186 191 192 191 192 191 193 195 195 196 190 192 195 199 205 197 206 209 206
235 223 189 194 212 206 205 218 235 240 248 254 246 225 115 187 180 185 178 176 182 184 183 185 188 187 190 189 187 192 191 192 194 197 197 196 191 191 193 197 201 204 207 198
224 235 217 210 201 256 228 230 229 234 235 248 262 231 108 141 163 185 177 168 170 179 178 178 182 183 188 188 185 186 191 194 194 193 194 196 194 191 194 195 198 202 201 203
207 234 217 200 192 200 215 220 235 245 242 244 247 233 131 142 171 177 175 164 162 173 181 179 179 183 190 190 189 186 191 193 193 190 193 192 192 190 193 193 193 196 198 202
236 232 244 240 227 199 209 214 227 239 238 240 242 248 215 212 216 194 176 170 169 174 178 176 179 184 189 193 194 193 191 188 189 191 194 191 192 192 190 190 192 196 196 193
234 230 234 255 253 236 230 229 229 237 250 257 250 248 256 264 248 209 177 177 188 187 188 180 180 184 189 191 195 194 192 187 186 189 193 190 191 190 190 192 195 194 195 193
229 234 227 233 232 232 239 236 235 240 247 251 257 258 281 319 232 199 205 195 197 204 205 197 190 189 195 196 195 190 189 186 186 189 190 184 187 187 188 193 195 193 192 188
215 222 232 232 219 231 230 229 230 233 241 249 251 257 259 258 227 227 222 209 220 224 232 226 208 200 196 197 192 187 183 180 184 187 183 179 182 185 189 194 193 195 195 189
225 226 229 233 217 231 216 176 229 237 245 254 267 277 290 310 294 236 218 156 335 317 288 261 229 201 192 181 176 179 173 176 176 176 178 181 185 189 188 191 193 198 199 197
223 227 233 233 230 230 208 201 232 237 238 232 248 271 288 217 188 156 86 52 5 328 311 276 244 184 165 165 167 171 169 167 172 177 182 185 187 189 189 192 195 198 199 202
199 222 233 230 237 234 194 147 268 248 226 170 227 248 252 236 240 116 69 36 24 18 31 76 148 148 147 151 160 166 172 174 179 181 183 181 184 190 193 192 193 195 199 206
195 206 223 231 237 239 91 155 224 231 207 90 253 249 244 265 347 60 75 52 39 38 50 80 111 115 128 140 153 162 172 179 181 178 177 179 183 188 185 183 186 194 203 207
223 213 216 228 237 226 135 219 234 333 29 337 294 244 218 65 78 91 93 87 76 59 58 84 99 99 117 128 140 146 153 163 168 173 176 180 186 193 181 182 187 195 202 203
237 267 262 258 266 26 1 312 4 2 319 348 93 113 151 139 111 96 93 87 77 64 56 72 92 97 100 109 120 121 116 137 158 165 173 178 184 193 192 192 193 196 201 215
202 255 240 240 232 278 345 341 356 15 21 24 78 123 134 118 109 100 90 82 75 70 63 65 76 82 84 82 87 92 89 111 145 157 166 176 180 186 190 201 204 210 214 223
260 230 232 236 242 247 250 324 3 50 80 101 98 102 108 110 108 99 90 77 69 65 61 58 62 70 77 77 75 71 77 95 120 140 164 181 177 182 189 191 210 220 220 240
249 252 253 250 223 251 230 343 338 113 107 107 106 99 94 102 101 91 84 77 69 63 56 53 55 63 67 69 67 57 60 86 114 138 156 185 190 187 199 195 193 187 223 192